| time (UTC) | temp F | wind direction | speed MPH | gust MPH | rain 1hr in | rain 24hr in | rain mn in | humidity % | barometer mb |
| 20260906163507 | 73 | 29 | 1.0 | 4.0 | 0.00 | 0.00 | 0.00 | 75 | 1019.0 |
| 20260906163011 | 73 | 5 | 1.0 | 9.0 | 0.00 | 0.00 | 0.00 | 76 | 1019.0 |
| 20260906162502 | 72 | 71 | 2.0 | 9.0 | 0.00 | 0.00 | 0.00 | 76 | 1019.1 |
| 20260906162004 | 72 | 61 | 1.0 | 8.0 | 0.00 | 0.00 | 0.00 | 76 | 1018.9 |
| 20260906161507 | 72 | 65 | 4.0 | 8.0 | 0.00 | 0.00 | 0.00 | 76 | 1018.9 |
| 20260906161007 | 72 | 59 | 1.0 | 4.0 | 0.00 | 0.00 | 0.00 | 76 | 1018.9 |
| 20260906160503 | 72 | 34 | 2.0 | 4.0 | 0.00 | 0.00 | 0.00 | 76 | 1019.0 |
| 20260906160005 | 72 | 13 | 1.0 | 9.0 | 0.00 | 0.00 | 0.00 | 78 | 1019.0 |
| 20260906155504 | 71 | 62 | 2.0 | 9.0 | 0.00 | 0.00 | 0.00 | 77 | 1019.0 |
| 20260906155003 | 71 | 55 | 2.0 | 5.0 | 0.00 | 0.00 | 0.00 | 77 | 1019.1 |
| 20260906154508 | 71 | 44 | 1.0 | 4.0 | 0.00 | 0.00 | 0.00 | 79 | 1019.1 |
| 20260906154005 | 70 | 18 | 1.0 | 4.0 | 0.00 | 0.00 | 0.00 | 78 | 1019.1 |
| 20260906153503 | 70 | 30 | 1.0 | 5.0 | 0.00 | 0.00 | 0.00 | 78 | 1019.1 |
| 20260906153006 | 70 | 46 | 2.0 | 5.0 | 0.00 | 0.00 | 0.00 | 79 | 1019.1 |
| 20260906152503 | 70 | 30 | 1.0 | 6.0 | 0.00 | 0.00 | 0.00 | 79 | 1019.0 |
| 20260906152004 | 70 | 67 | 3.0 | 6.0 | 0.00 | 0.00 | 0.00 | 79 | 1019.0 |
| 20260906151521 | 70 | 66 | 1.0 | 3.0 | 0.00 | 0.00 | 0.00 | 79 | 1019.1 |
| 20260906151005 | 70 | 27 | 1.0 | 3.0 | 0.00 | 0.00 | 0.00 | 78 | 1019.1 |
| 20260906150504 | 70 | 44 | 1.0 | 6.0 | 0.00 | 0.00 | 0.00 | 78 | 1019.1 |
| 20260906150008 | 70 | 57 | 1.0 | 6.0 | 0.00 | 0.00 | 0.00 | 80 | 1019.1 |
| 20260906145503 | 70 | 34 | 2.0 | 6.0 | 0.00 | 0.00 | 0.00 | 80 | 1019.0 |
| 20260906145004 | 69 | 69 | 3.0 | 5.0 | 0.00 | 0.01 | 0.00 | 81 | 1019.0 |
| 20260906144508 | 69 | 33 | 1.0 | 4.0 | 0.00 | 0.01 | 0.00 | 79 | 1018.9 |
| 20260906144004 | 69 | 46 | 1.0 | 4.0 | 0.00 | 0.01 | 0.00 | 79 | 1019.0 |
| 20260906143504 | 69 | 36 | 1.0 | 4.0 | 0.00 | 0.01 | 0.00 | 81 | 1018.9 |
| 20260906143010 | 69 | 80 | 1.0 | 4.0 | 0.00 | 0.01 | 0.00 | 79 | 1018.8 |
| 20260906142507 | 69 | 33 | 2.0 | 4.0 | 0.00 | 0.02 | 0.00 | 80 | 1018.7 |
| 20260906142005 | 69 | 50 | 1.0 | 4.0 | 0.00 | 0.02 | 0.00 | 78 | 1018.6 |
| 20260906141511 | 68 | 49 | 1.0 | 4.0 | 0.00 | 0.02 | 0.00 | 78 | 1018.6 |
| 20260906141007 | 69 | 47 | 1.0 | 7.0 | 0.00 | 0.02 | 0.00 | 79 | 1018.7 |
| 20260906140502 | 69 | 34 | 3.0 | 7.0 | 0.00 | 0.03 | 0.00 | 78 | 1018.6 |
| 20260906140013 | 68 | 51 | 2.0 | 6.0 | 0.00 | 0.03 | 0.00 | 78 | 1018.6 |
| 20260906135507 | 68 | 54 | 1.0 | 7.0 | 0.00 | 0.03 | 0.00 | 80 | 1018.6 |
| 20260906135003 | 68 | 46 | 2.0 | 7.0 | 0.00 | 0.03 | 0.00 | 80 | 1018.6 |
| 20260906134510 | 67 | 50 | 2.0 | 6.0 | 0.00 | 0.03 | 0.00 | 79 | 1018.6 |
| 20260906134005 | 67 | 42 | 1.0 | 6.0 | 0.00 | 0.03 | 0.00 | 80 | 1018.6 |
| 20260906133503 | 67 | 64 | 3.0 | 6.0 | 0.00 | 0.03 | 0.00 | 80 | 1018.5 |
| 20260906133010 | 67 | 56 | 2.0 | 6.0 | 0.00 | 0.03 | 0.00 | 82 | 1018.6 |
| 20260906132506 | 66 | 37 | 1.0 | 4.0 | 0.00 | 0.03 | 0.00 | 81 | 1018.7 |
| 20260906132005 | 66 | 29 | 1.0 | 2.0 | 0.00 | 0.03 | 0.00 | 81 | 1018.7 |
| 20260906131509 | 65 | 67 | 1.0 | 5.0 | 0.00 | 0.03 | 0.00 | 82 | 1018.5 |
| 20260906131003 | 65 | 62 | 3.0 | 5.0 | 0.00 | 0.03 | 0.00 | 83 | 1018.5 |
| 20260906130504 | 64 | 74 | 1.0 | 2.0 | 0.00 | 0.03 | 0.00 | 85 | 1018.5 |
| 20260906130018 | 63 | 48 | 1.0 | 2.0 | 0.00 | 0.03 | 0.00 | 85 | 1018.6 |
| 20260906125503 | 63 | 40 | 0.0 | 2.0 | 0.00 | 0.03 | 0.00 | 87 | 1018.5 |
| 20260906125004 | 63 | 34 | 1.0 | 2.0 | 0.00 | 0.03 | 0.00 | 86 | 1018.4 |
| 20260906124511 | 63 | 44 | 1.0 | 2.0 | 0.00 | 0.03 | 0.00 | 87 | 1018.3 |
| 20260906124005 | 62 | 40 | 1.0 | 2.0 | 0.00 | 0.03 | 0.00 | 87 | 1018.1 |
| 20260906123504 | 62 | 44 | 1.0 | 2.0 | 0.00 | 0.03 | 0.00 | 87 | 1017.9 |
| 20260906123017 | 62 | 46 | 1.0 | 2.0 | 0.00 | 0.03 | 0.00 | 88 | 1017.9 |
| 20260906122505 | 62 | 69 | 1.0 | 3.0 | 0.00 | 0.03 | 0.00 | 88 | 1017.9 |
| 20260906122005 | 62 | 61 | 1.0 | 3.0 | 0.00 | 0.03 | 0.00 | 88 | 1018.0 |
| 20260906121525 | 62 | 61 | 1.0 | 2.0 | 0.00 | 0.04 | 0.00 | 89 | 1018.0 |
| 20260906121007 | 62 | 53 | 1.0 | 2.0 | 0.00 | 0.06 | 0.00 | 89 | 1017.9 |
| 20260906120507 | 62 | 76 | 1.0 | 2.0 | 0.00 | 0.06 | 0.00 | 90 | 1017.8 |
| 20260906120012 | 62 | 62 | 1.0 | 2.0 | 0.00 | 0.06 | 0.00 | 90 | 1017.8 |
| 20260906115505 | 61 | 65 | 0.0 | 2.0 | 0.00 | 0.06 | 0.00 | 90 | 1017.7 |
| 20260906115007 | 61 | 65 | 1.0 | 4.0 | 0.00 | 0.06 | 0.00 | 89 | 1017.6 |
| 20260906114509 | 61 | 67 | 2.0 | 4.0 | 0.00 | 0.06 | 0.00 | 89 | 1017.4 |
| 20260906114003 | 61 | 70 | 2.0 | 4.0 | 0.00 | 0.06 | 0.00 | 89 | 1017.4 |
| 20260906113504 | 61 | 65 | 2.0 | 3.0 | 0.00 | 0.06 | 0.00 | 89 | 1017.4 |
| 20260906113035 | 61 | 65 | 1.0 | 3.0 | 0.00 | 0.06 | 0.00 | 89 | 1017.3 |
| 20260906112506 | 61 | 67 | 1.0 | 3.0 | 0.00 | 0.06 | 0.00 | 89 | 1017.3 |
| 20260906112002 | 61 | 65 | 1.0 | 3.0 | 0.00 | 0.06 | 0.00 | 89 | 1017.3 |
| 20260906111503 | 62 | 65 | 1.0 | 3.0 | 0.00 | 0.06 | 0.00 | 89 | 1017.2 |
| 20260906111002 | 62 | 62 | 1.0 | 5.0 | 0.00 | 0.06 | 0.00 | 89 | 1017.1 |
| 20260906110503 | 62 | 60 | 2.0 | 5.0 | 0.00 | 0.07 | 0.00 | 89 | 1017.1 |
| 20260906110004 | 62 | 64 | 2.0 | 4.0 | 0.00 | 0.07 | 0.00 | 89 | 1017.1 |
| 20260906105503 | 62 | 61 | 2.0 | 4.0 | 0.00 | 0.07 | 0.00 | 89 | 1017.1 |
| 20260906105003 | 62 | 61 | 2.0 | 3.0 | 0.00 | 0.07 | 0.00 | 89 | 1017.1 |
| 20260906104509 | 62 | 66 | 1.0 | 2.0 | 0.00 | 0.07 | 0.00 | 89 | 1017.1 |
| 20260906104004 | 62 | 65 | 1.0 | 2.0 | 0.00 | 0.07 | 0.00 | 89 | 1017.0 |
| 20260906103503 | 62 | 67 | 1.0 | 3.0 | 0.00 | 0.10 | 0.00 | 88 | 1017.0 |
| 20260906103012 | 62 | 64 | 1.0 | 3.0 | 0.00 | 0.25 | 0.00 | 88 | 1017.0 |
| 20260906102508 | 62 | 67 | 2.0 | 3.0 | 0.00 | 0.35 | 0.00 | 88 | 1017.0 |
| 20260906102008 | 63 | 69 | 1.0 | 2.0 | 0.00 | 0.36 | 0.00 | 88 | 1017.0 |
| 20260906101516 | 63 | 64 | 1.0 | 2.0 | 0.00 | 0.39 | 0.00 | 88 | 1016.9 |
| 20260906101002 | 63 | 62 | 1.0 | 4.0 | 0.00 | 0.45 | 0.00 | 88 | 1017.0 |
| 20260906100502 | 63 | 63 | 1.0 | 4.0 | 0.00 | 0.52 | 0.00 | 88 | 1016.8 |
| 20260906100008 | 63 | 72 | 2.0 | 4.0 | 0.00 | 0.57 | 0.00 | 88 | 1016.7 |
| 20260906095503 | 63 | 67 | 2.0 | 4.0 | 0.00 | 0.60 | 0.00 | 88 | 1016.7 |
| 20260906095002 | 63 | 63 | 2.0 | 4.0 | 0.00 | 0.62 | 0.00 | 88 | 1016.7 |
| 20260906094504 | 63 | 63 | 2.0 | 4.0 | 0.00 | 0.64 | 0.00 | 88 | 1016.6 |
| 20260906094003 | 63 | 67 | 2.0 | 4.0 | 0.00 | 0.67 | 0.00 | 88 | 1016.6 |
| 20260906093503 | 63 | 51 | 2.0 | 4.0 | 0.00 | 0.71 | 0.00 | 88 | 1016.6 |
| 20260906093009 | 63 | 75 | 2.0 | 4.0 | 0.00 | 0.71 | 0.00 | 87 | 1016.7 |
| 20260906092504 | 63 | 68 | 1.0 | 4.0 | 0.00 | 0.72 | 0.00 | 87 | 1016.6 |
| 20260906092011 | 64 | 64 | 2.0 | 4.0 | 0.00 | 0.73 | 0.00 | 87 | 1016.5 |
| 20260906091524 | 64 | 66 | 1.0 | 2.0 | 0.00 | 0.75 | 0.00 | 87 | 1016.5 |
| 20260906091007 | 64 | 61 | 1.0 | 2.0 | 0.00 | 0.76 | 0.00 | 88 | 1016.5 |
| 20260906090509 | 64 | 53 | 1.0 | 3.0 | 0.00 | 0.80 | 0.00 | 87 | 1016.6 |
| 20260906090005 | 64 | 61 | 1.0 | 3.0 | 0.00 | 0.84 | 0.00 | 87 | 1016.5 |
| 20260906085503 | 64 | 61 | 1.0 | 2.0 | 0.00 | 0.84 | 0.00 | 87 | 1016.5 |
| 20260906085003 | 65 | 61 | 1.0 | 4.0 | 0.00 | 0.84 | 0.00 | 87 | 1016.5 |
| 20260906084504 | 65 | 52 | 1.0 | 5.0 | 0.00 | 0.84 | 0.00 | 86 | 1016.5 |
| 20260906084004 | 65 | 57 | 2.0 | 5.0 | 0.00 | 0.84 | 0.00 | 85 | 1016.4 |
| 20260906083502 | 65 | 63 | 2.0 | 8.0 | 0.00 | 0.84 | 0.00 | 85 | 1016.3 |
| 20260906083013 | 66 | 53 | 2.0 | 8.0 | 0.00 | 0.84 | 0.00 | 85 | 1016.3 |
| 20260906082503 | 66 | 68 | 3.0 | 7.0 | 0.00 | 0.84 | 0.00 | 85 | 1016.4 |
| 20260906082003 | 66 | 53 | 3.0 | 7.0 | 0.00 | 0.84 | 0.00 | 85 | 1016.3 |
| 20260906081515 | 66 | 61 | 2.0 | 8.0 | 0.00 | 0.84 | 0.00 | 85 | 1016.3 |
| 20260906081007 | 66 | 62 | 3.0 | 8.0 | 0.00 | 0.84 | 0.00 | 84 | 1016.4 |
| 20260906080508 | 66 | 57 | 4.0 | 8.0 | 0.00 | 0.84 | 0.00 | 83 | 1016.3 |
| 20260906080016 | 66 | 57 | 4.0 | 8.0 | 0.00 | 0.84 | 0.00 | 83 | 1016.3 |
| 20260906075510 | 66 | 67 | 4.0 | 8.0 | 0.00 | 0.84 | 0.00 | 83 | 1016.4 |
| 20260906075009 | 66 | 69 | 3.0 | 8.0 | 0.00 | 0.84 | 0.00 | 82 | 1016.4 |
| 20260906074503 | 66 | 65 | 2.0 | 8.0 | 0.00 | 0.84 | 0.00 | 82 | 1016.4 |
| 20260906074003 | 67 | 65 | 3.0 | 5.0 | 0.00 | 0.84 | 0.00 | 81 | 1016.5 |
| 20260906073502 | 67 | 78 | 2.0 | 5.0 | 0.00 | 0.84 | 0.00 | 81 | 1016.5 |
| 20260906073005 | 67 | 49 | 3.0 | 9.0 | 0.00 | 0.84 | 0.00 | 81 | 1016.4 |
| 20260906072503 | 67 | 50 | 4.0 | 8.0 | 0.00 | 0.84 | 0.00 | 81 | 1016.4 |
| 20260906072003 | 67 | 59 | 2.0 | 7.0 | 0.00 | 0.84 | 0.00 | 81 | 1016.4 |
| 20260906071508 | 67 | 81 | 3.0 | 7.0 | 0.00 | 0.84 | 0.00 | 81 | 1016.4 |
| 20260906071007 | 67 | 60 | 3.0 | 7.0 | 0.00 | 0.84 | 0.00 | 80 | 1016.3 |
| 20260906070508 | 67 | 67 | 3.0 | 6.0 | 0.00 | 0.84 | 0.00 | 80 | 1016.3 |
| 20260906070015 | 67 | 69 | 4.0 | 6.0 | 0.00 | 0.84 | 0.00 | 80 | 1016.3 |
| 20260906065508 | 67 | 66 | 3.0 | 6.0 | 0.00 | 0.84 | 0.00 | 80 | 1016.3 |
| 20260906065013 | 67 | 62 | 2.0 | 4.0 | 0.00 | 0.84 | 0.00 | 81 | 1016.3 |
| 20260906064520 | 67 | 60 | 2.0 | 4.0 | 0.00 | 0.84 | 0.00 | 81 | 1016.3 |
| 20260906064012 | 68 | 70 | 2.0 | 5.0 | 0.00 | 0.84 | 0.00 | 80 | 1016.3 |
| 20260906063504 | 68 | 65 | 2.0 | 5.0 | 0.00 | 0.84 | 0.00 | 81 | 1016.3 |
| 20260906063005 | 68 | 71 | 2.0 | 6.0 | 0.00 | 0.84 | 0.00 | 81 | 1016.3 |
| 20260906062502 | 68 | 65 | 3.0 | 6.0 | 0.00 | 0.84 | 0.00 | 81 | 1016.3 |
| 20260906062003 | 68 | 61 | 2.0 | 5.0 | 0.00 | 0.84 | 0.00 | 82 | 1016.2 |
| 20260906061509 | 68 | 67 | 3.0 | 5.0 | 0.00 | 0.84 | 0.00 | 81 | 1016.3 |
| 20260906061003 | 68 | 72 | 2.0 | 4.0 | 0.00 | 0.84 | 0.00 | 83 | 1016.3 |
| 20260906060507 | 67 | 59 | 1.0 | 3.0 | 0.00 | 0.84 | 0.00 | 83 | 1016.3 |
| 20260906060024 | 67 | 58 | 1.0 | 3.0 | 0.00 | 0.84 | 0.00 | 83 | 1016.2 |
| 20260906055507 | 67 | 68 | 1.0 | 3.0 | 0.00 | 0.84 | 0.00 | 84 | 1016.2 |
| 20260906055007 | 67 | 64 | 1.0 | 2.0 | 0.00 | 0.84 | 0.00 | 84 | 1016.1 |
| 20260906054526 | 67 | 65 | 1.0 | 3.0 | 0.00 | 0.84 | 0.00 | 83 | 1016.0 |
| 20260906054012 | 67 | 60 | 2.0 | 3.0 | 0.00 | 0.84 | 0.00 | 83 | 1016.0 |
| 20260906053510 | 67 | 61 | 1.0 | 3.0 | 0.00 | 0.84 | 0.00 | 83 | 1015.9 |
| 20260906053028 | 67 | 69 | 1.0 | 3.0 | 0.00 | 0.84 | 0.00 | 83 | 1015.9 |
| 20260906052503 | 67 | 38 | 2.0 | 3.0 | 0.00 | 0.84 | 0.00 | 83 | 1015.9 |
| 20260906052003 | 67 | 47 | 1.0 | 2.0 | 0.00 | 0.84 | 0.00 | 85 | 1015.9 |
| 20260906051506 | 67 | 66 | 1.0 | 2.0 | 0.00 | 0.84 | 0.00 | 85 | 1015.9 |
| 20260906051007 | 67 | 64 | 1.0 | 1.0 | 0.00 | 0.84 | 0.00 | 86 | 1015.9 |
| 20260906050503 | 67 | 63 | 1.0 | 2.0 | 0.00 | 0.84 | 0.00 | 86 | 1015.9 |
| 20260906050028 | 67 | 67 | 0.0 | 2.0 | 0.00 | 0.84 | 0.00 | 87 | 1015.9 |
| 20260906045506 | 67 | 66 | 1.0 | 2.0 | 0.00 | 0.84 | 0.00 | 87 | 1015.8 |
| 20260906045007 | 67 | 62 | 1.0 | 2.0 | 0.00 | 0.84 | 0.00 | 87 | 1015.8 |
| 20260906044528 | 67 | 65 | 1.0 | 2.0 | 0.00 | 0.84 | 0.00 | 87 | 1015.7 |
| 20260906044013 | 67 | 65 | 0.0 | 2.0 | 0.00 | 0.84 | 0.00 | 87 | 1015.8 |
| 20260906043512 | 67 | 65 | 0.0 | 2.0 | 0.00 | 0.84 | 0.00 | 86 | 1015.8 |
| 20260906043023 | 67 | 67 | 0.0 | 1.0 | 0.00 | 0.84 | 0.00 | 86 | 1015.6 |
| 20260906042511 | 67 | 67 | 0.0 | 1.0 | 0.00 | 0.84 | 0.00 | 86 | 1015.4 |
| 20260906042013 | 67 | 67 | 0.0 | 1.0 | 0.00 | 0.84 | 0.00 | 86 | 1015.4 |
| 20260906041508 | 67 | 67 | 0.0 | 1.0 | 0.00 | 0.84 | 0.00 | 86 | 1015.5 |
| 20260906041004 | 67 | 67 | 0.0 | 1.0 | 0.00 | 0.84 | 0.00 | 86 | 1015.4 |
| 20260906040503 | 67 | 67 | 0.0 | 2.0 | 0.00 | 0.84 | 0.00 | 85 | 1015.3 |
| 20260906040011 | 67 | 67 | 1.0 | 2.0 | 0.00 | 0.84 | 0.00 | 85 | 1015.3 |
| 20260906035505 | 68 | 65 | 1.0 | 2.0 | 0.00 | 0.84 | 0.84 | 84 | 1015.4 |
| 20260906035004 | 68 | 66 | 1.0 | 4.0 | 0.00 | 0.84 | 0.84 | 84 | 1015.4 |
| 20260906034517 | 68 | 66 | 2.0 | 4.0 | 0.00 | 0.84 | 0.84 | 84 | 1015.4 |
| 20260906034007 | 68 | 67 | 2.0 | 4.0 | 0.00 | 0.84 | 0.84 | 84 | 1015.4 |
| 20260906033509 | 69 | 72 | 3.0 | 4.0 | 0.00 | 0.84 | 0.84 | 83 | 1015.3 |
| 20260906033036 | 69 | 63 | 2.0 | 4.0 | 0.00 | 0.84 | 0.84 | 86 | 1015.3 |
| 20260906032511 | 69 | 57 | 2.0 | 4.0 | 0.00 | 0.84 | 0.84 | 86 | 1015.3 |
| 20260906032013 | 69 | 61 | 3.0 | 4.0 | 0.00 | 0.84 | 0.84 | 87 | 1015.3 |
| 20260906031530 | 69 | 56 | 2.0 | 4.0 | 0.00 | 0.84 | 0.84 | 88 | 1015.4 |
| 20260906031017 | 70 | 62 | 2.0 | 4.0 | 0.00 | 0.84 | 0.84 | 89 | 1015.4 |
| 20260906030503 | 70 | 70 | 2.0 | 2.0 | 0.00 | 0.84 | 0.84 | 89 | 1015.5 |
| 20260906030012 | 70 | 65 | 1.0 | 4.0 | 0.00 | 0.84 | 0.84 | 89 | 1015.4 |
| 20260906025504 | 70 | 70 | 2.0 | 5.0 | 0.00 | 0.84 | 0.84 | 89 | 1015.4 |
| 20260906025004 | 70 | 55 | 3.0 | 5.0 | 0.00 | 0.84 | 0.84 | 89 | 1015.3 |
| 20260906024514 | 70 | 63 | 3.0 | 5.0 | 0.00 | 0.84 | 0.84 | 89 | 1015.3 |
| 20260906024009 | 70 | 63 | 3.0 | 6.0 | 0.00 | 0.84 | 0.84 | 89 | 1015.3 |
| 20260906023508 | 70 | 75 | 3.0 | 6.0 | 0.00 | 0.84 | 0.84 | 89 | 1015.3 |
| 20260906023017 | 71 | 73 | 2.0 | 5.0 | 0.00 | 0.84 | 0.84 | 89 | 1015.2 |
| 20260906022509 | 71 | 64 | 2.0 | 5.0 | 0.00 | 0.84 | 0.84 | 89 | 1015.2 |
| 20260906022012 | 71 | 58 | 3.0 | 6.0 | 0.00 | 0.84 | 0.84 | 89 | 1015.2 |
| 20260906021528 | 71 | 72 | 2.0 | 6.0 | 0.00 | 0.84 | 0.84 | 88 | 1015.2 |
| 20260906021014 | 71 | 77 | 2.0 | 9.0 | 0.00 | 0.84 | 0.84 | 88 | 1015.2 |
| 20260906020513 | 71 | 61 | 3.0 | 9.0 | 0.00 | 0.84 | 0.84 | 88 | 1015.2 |
| 20260906020030 | 72 | 59 | 4.0 | 7.0 | 0.00 | 0.84 | 0.84 | 88 | 1015.1 |
| 20260906015504 | 71 | 52 | 2.0 | 7.0 | 0.00 | 0.84 | 0.84 | 89 | 1015.1 |
| 20260906015004 | 71 | 54 | 3.0 | 8.0 | 0.00 | 0.84 | 0.84 | 89 | 1014.9 |
| 20260906014511 | 71 | 59 | 4.0 | 8.0 | 0.00 | 0.84 | 0.84 | 89 | 1014.9 |
| 20260906014005 | 72 | 63 | 3.0 | 9.0 | 0.00 | 0.84 | 0.84 | 89 | 1014.8 |
| 20260906013506 | 72 | 67 | 3.0 | 9.0 | 0.00 | 0.84 | 0.84 | 88 | 1014.7 |
| 20260906013014 | 72 | 70 | 3.0 | 9.0 | 0.00 | 0.84 | 0.84 | 88 | 1014.6 |
| 20260906012509 | 72 | 57 | 3.0 | 9.0 | 0.00 | 0.84 | 0.84 | 88 | 1014.6 |
| 20260906012012 | 72 | 74 | 4.0 | 8.0 | 0.00 | 0.84 | 0.84 | 88 | 1014.4 |
| 20260906011533 | 72 | 53 | 4.0 | 9.0 | 0.00 | 0.84 | 0.84 | 88 | 1014.3 |
| 20260906011015 | 72 | 55 | 2.0 | 9.0 | 0.00 | 0.84 | 0.84 | 88 | 1014.2 |
| 20260906010516 | 73 | 65 | 3.0 | 8.0 | 0.00 | 0.84 | 0.84 | 88 | 1014.1 |
| 20260906010032 | 73 | 59 | 4.0 | 9.0 | 0.00 | 0.84 | 0.84 | 88 | 1014.2 |
| 20260906005515 | 73 | 61 | 4.0 | 9.0 | 0.00 | 0.84 | 0.84 | 88 | 1014.2 |
| 20260906005015 | 73 | 40 | 2.0 | 10.0 | 0.00 | 0.84 | 0.84 | 88 | 1014.2 |
| 20260906004509 | 74 | 55 | 4.0 | 10.0 | 0.00 | 0.84 | 0.84 | 88 | 1014.1 |
| 20260906004004 | 74 | 61 | 3.0 | 9.0 | 0.00 | 0.84 | 0.84 | 88 | 1014.0 |
| 20260906003506 | 74 | 63 | 1.0 | 9.0 | 0.00 | 0.84 | 0.84 | 88 | 1013.9 |
| 20260906003013 | 74 | 73 | 3.0 | 6.0 | 0.00 | 0.84 | 0.84 | 88 | 1013.8 |
| 20260906002510 | 74 | 53 | 2.0 | 5.0 | 0.00 | 0.84 | 0.84 | 88 | 1013.7 |
| 20260906002008 | 74 | 61 | 2.0 | 4.0 | 0.00 | 0.84 | 0.84 | 87 | 1013.7 |
| 20260906001523 | 75 | 49 | 1.0 | 3.0 | 0.00 | 0.84 | 0.84 | 87 | 1013.8 |
| 20260906001011 | 75 | 66 | 2.0 | 3.0 | 0.00 | 0.84 | 0.84 | 87 | 1013.7 |
| 20260906000513 | 75 | 53 | 2.0 | 3.0 | 0.00 | 0.84 | 0.84 | 86 | 1013.7 |
| 20260906000030 | 75 | 55 | 1.0 | 3.0 | 0.00 | 0.84 | 0.84 | 85 | 1013.7 |
| 20260905235515 | 75 | 61 | 1.0 | 5.0 | 0.00 | 0.84 | 0.84 | 85 | 1013.6 |
| 20260905235020 | 75 | 59 | 2.0 | 5.0 | 0.00 | 0.84 | 0.84 | 85 | 1013.6 |
| 20260905234530 | 76 | 67 | 1.0 | 4.0 | 0.00 | 0.84 | 0.84 | 85 | 1013.6 |
| 20260905234016 | 76 | 59 | 2.0 | 6.0 | 0.00 | 0.84 | 0.84 | 85 | 1013.5 |
| 20260905233506 | 76 | 72 | 3.0 | 6.0 | 0.00 | 0.84 | 0.84 | 85 | 1013.6 |
| 20260905233009 | 76 | 60 | 2.0 | 6.0 | 0.00 | 0.84 | 0.84 | 85 | 1013.6 |
| 20260905232507 | 76 | 59 | 2.0 | 3.0 | 0.00 | 0.84 | 0.84 | 85 | 1013.7 |
| 20260905232006 | 77 | 60 | 1.0 | 3.0 | 0.00 | 0.84 | 0.84 | 84 | 1013.7 |
| 20260905231520 | 77 | 54 | 1.0 | 6.0 | 0.00 | 0.84 | 0.84 | 85 | 1013.8 |
| 20260905231010 | 77 | 59 | 2.0 | 6.0 | 0.00 | 0.84 | 0.84 | 84 | 1013.8 |
| 20260905230511 | 78 | 69 | 3.0 | 7.0 | 0.00 | 0.84 | 0.84 | 83 | 1013.8 |
| 20260905230028 | 78 | 30 | 2.0 | 7.0 | 0.00 | 0.84 | 0.84 | 82 | 1013.8 |
| 20260905225515 | 78 | 54 | 1.0 | 3.0 | 0.00 | 0.84 | 0.84 | 83 | 1013.7 |
| 20260905225018 | 79 | 45 | 1.0 | 2.0 | 0.00 | 0.84 | 0.84 | 83 | 1013.6 |
| 20260905224533 | 78 | 47 | 1.0 | 2.0 | 0.00 | 0.84 | 0.84 | 83 | 1013.5 |
| 20260905224019 | 78 | 53 | 1.0 | 4.0 | 0.00 | 0.84 | 0.84 | 83 | 1013.5 |
| 20260905223515 | 78 | 42 | 1.0 | 4.0 | 0.00 | 0.84 | 0.84 | 83 | 1013.4 |
| 20260905223035 | 78 | 49 | 1.0 | 3.0 | 0.00 | 0.84 | 0.84 | 84 | 1013.3 |
| 20260905222505 | 79 | 57 | 1.0 | 3.0 | 0.00 | 0.84 | 0.84 | 84 | 1013.3 |
| 20260905222008 | 79 | 62 | 1.0 | 3.0 | 0.00 | 0.84 | 0.84 | 83 | 1013.2 |
| 20260905221517 | 79 | 38 | 1.0 | 6.0 | 0.00 | 0.84 | 0.84 | 82 | 1013.1 |
| 20260905221009 | 80 | 49 | 2.0 | 6.0 | 0.00 | 0.84 | 0.84 | 81 | 1012.9 |
| 20260905220510 | 80 | 77 | 3.0 | 9.0 | 0.00 | 0.84 | 0.84 | 81 | 1012.8 |
| 20260905220024 | 80 | 59 | 1.0 | 9.0 | 0.00 | 0.84 | 0.84 | 82 | 1012.9 |
| 20260905215513 | 80 | 59 | 1.0 | 4.0 | 0.00 | 0.84 | 0.84 | 81 | 1012.9 |
| 20260905215012 | 80 | 61 | 1.0 | 3.0 | 0.00 | 0.84 | 0.84 | 80 | 1012.9 |
| 20260905214527 | 81 | 39 | 1.0 | 2.0 | 0.00 | 0.84 | 0.84 | 79 | 1012.9 |
| 20260905214014 | 81 | 40 | 1.0 | 2.0 | 0.00 | 0.84 | 0.84 | 80 | 1012.7 |
| 20260905213512 | 81 | 40 | 1.0 | 2.0 | 0.00 | 0.84 | 0.84 | 79 | 1012.7 |
| 20260905213030 | 81 | 34 | 1.0 | 1.0 | 0.00 | 0.84 | 0.84 | 79 | 1012.6 |
| 20260905212515 | 82 | 52 | 1.0 | 2.0 | 0.00 | 0.84 | 0.84 | 79 | 1012.6 |
| 20260905212017 | 82 | 34 | 1.0 | 2.0 | 0.00 | 0.84 | 0.84 | 78 | 1012.7 |
| 20260905211511 | 82 | 46 | 1.0 | 2.0 | 0.00 | 0.84 | 0.84 | 78 | 1012.6 |
| 20260905211007 | 82 | 32 | 1.0 | 3.0 | 0.00 | 0.84 | 0.84 | 77 | 1012.8 |
| 20260905210511 | 83 | 64 | 1.0 | 3.0 | 0.00 | 0.84 | 0.84 | 78 | 1012.8 |
| 20260905210019 | 83 | 64 | 1.0 | 6.0 | 0.00 | 0.84 | 0.84 | 78 | 1012.8 |
| 20260905205511 | 83 | 42 | 1.0 | 6.0 | 0.00 | 0.84 | 0.84 | 78 | 1012.9 |
| 20260905205012 | 82 | 10 | 0.0 | 2.0 | 0.00 | 0.84 | 0.84 | 79 | 1012.9 |
| 20260905204527 | 82 | 29 | 1.0 | 3.0 | 0.00 | 0.84 | 0.84 | 80 | 1013.0 |
| 20260905204015 | 81 | 53 | 1.0 | 3.0 | 0.00 | 0.84 | 0.84 | 80 | 1013.1 |
| 20260905203514 | 81 | 59 | 1.0 | 3.0 | 0.00 | 0.84 | 0.84 | 81 | 1013.2 |
| 20260905203006 | 81 | 50 | 1.0 | 1.0 | 0.00 | 0.84 | 0.84 | 80 | 1013.3 |
| 20260905202503 | 81 | 49 | 1.0 | 2.0 | 0.00 | 0.84 | 0.84 | 79 | 1013.3 |
| 20260905202004 | 81 | 56 | 0.0 | 2.0 | 0.00 | 0.84 | 0.84 | 81 | 1013.3 |
| 20260905201509 | 82 | 56 | 0.0 | 2.0 | 0.00 | 0.84 | 0.84 | 79 | 1013.3 |
| 20260905201010 | 82 | 56 | 0.0 | 2.0 | 0.00 | 0.84 | 0.84 | 79 | 1013.3 |
| 20260905200507 | 82 | 352 | 0.0 | 4.0 | 0.00 | 0.84 | 0.84 | 78 | 1013.2 |
| 20260905200021 | 83 | 352 | 0.0 | 5.0 | 0.00 | 0.84 | 0.84 | 75 | 1013.2 |
| 20260905195510 | 83 | 350 | 2.0 | 8.0 | 0.00 | 0.84 | 0.84 | 73 | 1013.3 |
| 20260905195015 | 83 | 339 | 2.0 | 8.0 | 0.00 | 0.84 | 0.84 | 74 | 1013.3 |
| 20260905194527 | 83 | 344 | 2.0 | 6.0 | 0.00 | 0.84 | 0.84 | 74 | 1013.4 |
| 20260905194013 | 83 | 351 | 0.0 | 6.0 | 0.00 | 0.84 | 0.84 | 74 | 1013.4 |
| 20260905193513 | 84 | 345 | 4.0 | 6.0 | 0.00 | 0.84 | 0.84 | 72 | 1013.4 |
| 20260905193029 | 84 | 306 | 0.0 | 5.0 | 0.00 | 0.84 | 0.84 | 71 | 1013.5 |
| 20260905192514 | 84 | 352 | 1.0 | 5.0 | 0.00 | 0.84 | 0.84 | 72 | 1013.6 |
| 20260905192004 | 85 | 65 | 1.0 | 4.0 | 0.00 | 0.84 | 0.84 | 74 | 1013.6 |
| 20260905191508 | 85 | 348 | 1.0 | 4.0 | 0.00 | 0.84 | 0.84 | 74 | 1013.6 |
| 20260905191006 | 84 | 297 | 2.0 | 5.0 | 0.00 | 0.84 | 0.84 | 71 | 1013.6 |
| 20260905190508 | 84 | 301 | 1.0 | 5.0 | 0.00 | 0.84 | 0.84 | 71 | 1013.7 |
| 20260905190013 | 84 | 326 | 2.0 | 6.0 | 0.00 | 0.84 | 0.84 | 72 | 1013.8 |
| 20260905185509 | 84 | 257 | 3.0 | 6.0 | 0.00 | 0.84 | 0.84 | 72 | 1013.9 |
| 20260905185010 | 84 | 10 | 1.0 | 6.0 | 0.00 | 0.84 | 0.84 | 73 | 1013.9 |
| 20260905184523 | 84 | 324 | 2.0 | 5.0 | 0.00 | 0.84 | 0.84 | 71 | 1014.0 |
| 20260905184012 | 84 | 238 | 2.0 | 5.0 | 0.00 | 0.84 | 0.84 | 73 | 1014.0 |
| 20260905183513 | 84 | 273 | 1.0 | 6.0 | 0.00 | 0.84 | 0.84 | 74 | 1014.0 |
| 20260905183032 | 83 | 284 | 2.0 | 8.0 | 0.00 | 0.84 | 0.84 | 73 | 1014.0 |
| 20260905182515 | 83 | 234 | 3.0 | 8.0 | 0.00 | 0.84 | 0.84 | 72 | 1014.1 |
| 20260905182014 | 83 | 277 | 2.0 | 7.0 | 0.00 | 0.84 | 0.84 | 75 | 1014.1 |
| 20260905181543 | 83 | 334 | 3.0 | 7.0 | 0.00 | 0.84 | 0.84 | 73 | 1014.2 |
| 20260905181004 | 83 | 290 | 3.0 | 7.0 | 0.00 | 0.84 | 0.84 | 74 | 1014.2 |
| 20260905180504 | 82 | 329 | 1.0 | 6.0 | 0.00 | 0.84 | 0.84 | 76 | 1014.1 |
| 20260905180014 | 82 | 197 | 2.0 | 6.0 | 0.00 | 0.84 | 0.84 | 75 | 1014.2 |
| 20260905175508 | 81 | 275 | 2.0 | 6.0 | 0.00 | 0.84 | 0.84 | 77 | 1014.1 |
| 20260905175008 | 81 | 246 | 2.0 | 6.0 | 0.00 | 0.84 | 0.84 | 75 | 1014.2 |
| 20260905174524 | 81 | 254 | 1.0 | 5.0 | 0.00 | 0.84 | 0.84 | 73 | 1014.3 |
| 20260905174015 | 82 | 344 | 1.0 | 5.0 | 0.00 | 0.84 | 0.84 | 73 | 1014.4 |
| 20260905173512 | 82 | 315 | 3.0 | 5.0 | 0.00 | 0.84 | 0.84 | 74 | 1014.4 |
| 20260905173031 | 81 | 314 | 3.0 | 8.0 | 0.00 | 0.84 | 0.84 | 75 | 1014.4 |
| 20260905172513 | 81 | 319 | 2.0 | 8.0 | 0.00 | 0.84 | 0.84 | 75 | 1014.4 |
| 20260905172016 | 80 | 313 | 4.0 | 7.0 | 0.00 | 0.84 | 0.84 | 77 | 1014.5 |
| 20260905171538 | 80 | 306 | 3.0 | 7.0 | 0.00 | 0.84 | 0.84 | 78 | 1014.4 |
| 20260905171015 | 79 | 351 | 3.0 | 8.0 | 0.00 | 0.84 | 0.84 | 76 | 1014.3 |
| 20260905170517 | 79 | 342 | 5.0 | 8.0 | 0.00 | 0.84 | 0.84 | 76 | 1014.5 |
| 20260905170012 | 79 | 344 | 4.0 | 8.0 | 0.00 | 0.84 | 0.84 | 76 | 1014.4 |
| 20260905165503 | 79 | 332 | 2.0 | 6.0 | 0.00 | 0.84 | 0.84 | 78 | 1014.4 |
| 20260905165012 | 78 | 344 | 4.0 | 9.0 | 0.00 | 0.84 | 0.84 | 77 | 1014.6 |
| 20260905164516 | 78 | 334 | 5.0 | 9.0 | 0.00 | 0.84 | 0.84 | 77 | 1014.7 |
| 20260905164009 | 78 | 344 | 5.0 | 7.0 | 0.00 | 0.84 | 0.84 | 78 | 1014.6 |